#timestamp,LO_Frequency,Hit,StdDev 
1516615215.5,286046998.7,N
1516615235.3,286046999.0,N
1516615255.1,286046998.1,N
1516615275.9,286047000.3,N
1516615295.7,286047002.3,N
1516615315.5,286046998.2,N
1516615335.4,286047003.9,N
1516615355.2,286047004.3,N
1516615375.0,286047005.5,N
1516615376.0,286047005.5,N
1516615395.8,286047004.7,N
1516615415.6,286047002.9,N
1516615435.5,286047001.6,N
1516615455.3,286047002.2,N
1516615475.1,286047001.2,N
1516615495.9,286046999.7,N
1516615515.7,286047000.4,N
1516615535.5,286047001.2,N
1516615555.4,286046997.0,N
1516615575.2,286046996.5,N
1516615595.1,286046996.4,N
1516615596.0,286046996.4,N
1516615615.8,286046995.1,N
1516615635.6,286046999.5,N
1516615655.5,286046998.3,N
1516615675.3,286046996.8,N
1516615695.2,286047001.2,N
1516615715.9,286046998.3,N
1516615735.7,286047000.3,N
1516615755.6,286046999.5,N
1516615775.4,286046996.4,N
1516615795.2,286046994.5,N
1516615815.1,286046994.0,N
1516615816.0,286046994.0,N
1516615835.8,286046995.0,N
1516615855.7,286046994.9,N
1516615875.5,286046995.3,N
1516615895.3,286046996.9,N
1516615915.2,286046995.2,N
1516615935.0,286046993.4,N
1516615935.9,286046993.4,N
1516615955.7,286046994.5,N
1516615975.6,286046993.8,N
1516616025.5,286046992.6,E
1516616035.4,286046996.3,N
1516616055.2,286047000.8,P
1516616075.1,286047002.1,N
1516616076.0,286047002.1,N
1516616095.8,286046999.7,N
1516616115.6,286046998.7,N
1516616135.5,286047001.8,N
1516616155.3,286047001.8,N
1516616175.1,286047005.5,N
1516616195.9,286047003.3,N
1516616215.7,286047005.4,N
1516616235.6,286047007.6,N
1516616255.4,286047000.2,N
1516616275.2,286047001.1,N
1516616295.1,286046999.9,N
1516616296.0,286046999.9,N
1516616315.8,286046998.8,N
1516616335.6,286047000.8,N
1516616355.5,286047000.4,N
1516616375.3,286046999.7,N
1516616395.2,286047000.8,N
1516616415.9,286047001.0,N
1516616435.7,286047002.6,N
1516616455.6,286047002.5,N
1516616475.4,286047002.5,N
1516616495.2,286047001.7,N
1516616515.1,286047003.0,N
1516616516.0,286047003.0,N
1516616535.8,286047002.1,N
1516616555.7,286047002.5,N
1516616575.5,286047006.0,N
1516616595.3,286047004.0,N
1516616615.2,286047003.3,N
1516616635.0,286047003.3,N
1516616635.9,286047003.3,N
1516616655.8,286047003.5,N
1516616675.6,286047002.1,N
1516616695.4,286047001.7,N
1516616715.3,286047004.4,N
1516616735.1,286047000.0,N
1516616736.0,286047000.0,N
1516616755.8,286047001.9,N
1516616775.7,286047003.6,N
1516616795.5,286047002.4,N
1516616815.3,286047001.5,N
1516616835.2,286047003.6,N
1516616855.0,286047001.3,N
1516616855.9,286047001.3,N
1516616875.8,286047001.4,N
1516616895.6,286047001.7,N
1516616915.4,286047004.9,Y
1516616935.3,286047003.5,P
1516616955.1,286047005.5,P
1516616975.9,286047004.2,P
1516616995.7,286047003.9,Y
1516617015.5,286047000.1,P
1516617035.4,286046998.3,N
1516617055.2,286046997.9,N
1516617075.0,286046998.9,N
1516617075.9,286046998.9,N
1516617095.8,286046998.8,N
1516617115.6,286046997.4,N
1516617135.5,286046998.8,N
1516617155.3,286047001.6,N
1516617175.1,286046999.6,N
1516617195.9,286046996.0,N
1516617215.7,286046996.8,N
1516617235.5,286047001.2,N
1516617255.4,286047000.9,N
1516617275.2,286047000.6,N
1516617295.0,286046999.8,N
1516617296.0,286046999.8,N
1516617315.8,286047000.4,N
1516617335.6,286046998.1,N
1516617355.5,286047001.0,N
1516617375.3,286047001.9,N
1516617395.1,286047002.7,N
1516617415.9,286047004.0,N
1516617435.7,286047004.0,N
1516617455.6,286047003.8,N
1516617475.4,286047004.0,N
1516617495.2,286047002.2,N
1516617515.1,286047000.8,N
1516617516.0,286047000.8,N
1516617535.8,286046998.8,N
1516617555.6,286046999.2,N
1516617575.5,286046995.1,N
1516617595.3,286046993.7,N
1516617615.2,286046993.3,N
1516617635.9,286046995.5,N
1516617655.7,286046992.3,N
1516617675.6,286046996.4,N
1516617695.4,286046993.3,N
1516617715.2,286046994.9,N
1516617735.1,286046995.5,N
1516617736.0,286046995.5,N
1516617755.8,286046998.2,N
1516617775.7,286046996.9,N
1516617795.5,286046996.0,N
1516617815.3,286046993.9,N
1516617835.2,286046994.9,N
1516617855.0,286046993.6,N
1516617855.9,286046993.6,N
1516617875.7,286046994.3,N
1516617895.6,286046993.6,N
1516617915.4,286046996.2,N
1516617935.3,286046995.4,N
1516617955.1,286046995.1,N
1516617956.0,286046995.1,N
1516617975.8,286046992.9,N
1516617995.7,286046993.5,N
1516618015.5,286046998.1,N
1516618035.3,286046996.8,N
1516618055.2,286046995.0,N
1516618075.0,286047000.4,N
1516618075.9,286047000.4,N
1516618095.8,286046998.1,N
1516618115.6,286046995.0,N
1516618135.4,286046997.5,N
1516618155.3,286046997.6,N
1516618175.1,286046997.5,N
1516618195.9,286046996.6,N
1516618215.7,286046999.2,N
1516618235.5,286047000.2,N
1516618255.4,286047004.0,N
1516618275.2,286047000.1,N
1516618295.0,286047000.9,N
1516618295.9,286047000.9,N
1516618315.8,286046999.0,N
1516618335.6,286046996.6,N
1516618355.5,286046995.5,N
1516618375.3,286046999.0,N
1516618395.1,286046995.3,N
1516618415.9,286046995.3,N
1516618435.7,286046996.2,N
1516618455.5,286046999.5,N
1516618475.4,286046996.1,N
1516618495.2,286046996.2,N
1516618515.1,286046994.5,N
1516618516.0,286046994.5,N
1516618535.8,286046994.3,N
1516618555.6,286046995.4,N
1516618575.5,286046997.5,N
1516618595.3,286046994.9,N
1516618615.1,286046998.8,N
1516618635.9,286046998.7,N
1516618655.7,286046996.5,N
1516618675.6,286046997.9,N
1516618695.4,286046996.1,N
1516618715.2,286046996.2,N
1516618735.1,286046993.8,N
1516618736.0,286046993.8,N
1516618755.8,286046997.5,N
1516618775.6,286046997.3,N
1516618795.5,286047002.6,N
